| time (UTC) | temp C | wind direction | speed KPH | gust KPH | rain 1hr cm | rain 24hr cm | rain mn cm | humidity % | barometer mb |
| 20260901153230 | 22 | 270 | 16.1 | 0.0 | 0.00 | 0.00 | 0.00 | 40 | 1020.0 |
| 20260901152156 | 22 | 250 | 22.5 | 0.0 | 0.00 | 0.00 | 0.00 | 40 | |
| 20260901150232 | 22 | 250 | 22.5 | 0.0 | 0.00 | 0.00 | 0.00 | 43 | 1019.0 |
| 20260901143230 | 22 | 280 | 14.5 | 0.0 | 0.00 | 0.00 | 0.00 | 43 | 1019.0 |
| 20260901142355 | 22 | 260 | 22.5 | 0.0 | 0.00 | 0.00 | 0.00 | 40 | |
| 20260901140232 | 22 | 260 | 22.5 | 0.0 | 0.00 | 0.00 | 0.00 | 43 | 1019.0 |
| 20260901133231 | 23 | 260 | 24.1 | 0.0 | 0.00 | 0.00 | 0.00 | 38 | 1019.0 |
| 20260901132256 | 23 | 260 | 25.7 | 0.0 | 0.00 | 0.00 | 0.00 | 38 | |
| 20260901130240 | 23 | 260 | 24.1 | 0.0 | 0.00 | 0.00 | 0.00 | 38 | 1019.0 |
| 20260901123238 | 22 | 250 | 20.9 | 0.0 | 0.00 | 0.00 | 0.00 | 40 | 1019.0 |
| 20260901122211 | 22 | 260 | 22.5 | 0.0 | 0.00 | 0.00 | 0.00 | 43 | |
| 20260901120233 | 22 | 250 | 24.1 | 0.0 | 0.00 | 0.00 | 0.00 | 43 | 1020.0 |
| 20260901113231 | 23 | 250 | 24.1 | 0.0 | 0.00 | 0.00 | 0.00 | 41 | 1020.0 |
| 20260901112257 | 22 | 250 | 22.5 | 0.0 | 0.00 | 0.00 | 0.00 | 43 | |
| 20260901110234 | 22 | 250 | 24.1 | 0.0 | 0.00 | 0.00 | 0.00 | 46 | 1020.0 |
| 20260901103231 | 22 | 250 | 27.4 | 0.0 | 0.00 | 0.00 | 0.00 | 46 | 1020.0 |
| 20260901102525 | 22 | 250 | 25.7 | 0.0 | 0.00 | 0.00 | 0.00 | 46 | |
| 20260901100231 | 21 | 250 | 24.1 | 0.0 | 0.00 | 0.00 | 0.00 | 49 | 1020.0 |
| 20260901093230 | 22 | 240 | 25.7 | 0.0 | 0.00 | 0.00 | 0.00 | 46 | 1020.0 |
| 20260901092211 | 22 | 240 | 29.0 | 0.0 | 0.00 | 0.00 | 0.00 | 46 | |
| 20260901090240 | 22 | 240 | 29.0 | 0.0 | 0.00 | 0.00 | 0.00 | 46 | 1020.0 |
| 20260901083231 | 21 | 240 | 22.5 | 0.0 | 0.00 | 0.00 | 0.00 | 49 | 1019.0 |
| 20260901082430 | 21 | 240 | 19.3 | 0.0 | 0.00 | 0.00 | 0.00 | 52 | |
| 20260901080234 | 20 | 240 | 16.1 | 0.0 | 0.00 | 0.00 | 0.00 | 56 | 1019.0 |
| 20260901073230 | 18 | 230 | 14.5 | 0.0 | 0.00 | 0.00 | 0.00 | 59 | 1019.0 |
| 20260901072426 | 18 | 230 | 19.3 | 0.0 | 0.00 | 0.00 | 0.00 | 63 | |
| 20260901070241 | 18 | 230 | 16.1 | 0.0 | 0.00 | 0.00 | 0.00 | 59 | 1019.0 |
| 20260901063238 | 18 | 220 | 24.1 | 0.0 | 0.00 | 0.00 | 0.00 | 63 | 1018.0 |
| 20260901062226 | 17 | 230 | 22.5 | 0.0 | 0.00 | 0.00 | 0.00 | 67 | |
| 20260901060234 | 17 | 230 | 20.9 | 0.0 | 0.00 | 0.00 | 0.00 | 67 | 1018.0 |
| 20260901053223 | 17 | 230 | 22.5 | 0.0 | 0.00 | 0.00 | 0.00 | 72 | 1018.0 |
| 20260901052310 | 16 | 240 | 14.5 | 0.0 | 0.00 | 0.00 | 0.00 | 77 | |
| 20260901050232 | 16 | 250 | 11.3 | 0.0 | 0.00 | 0.00 | 0.00 | 77 | 1018.0 |
| 20260901043224 | 16 | 270 | 4.8 | 0.0 | 0.00 | 0.00 | 0.00 | 72 | 1018.0 |
| 20260901042530 | 17 | 220 | 14.5 | 0.0 | 0.00 | 0.00 | 0.00 | 72 | |
| 20260901040234 | 16 | 220 | 16.1 | 0.0 | 0.00 | 0.00 | 0.00 | 77 | 1017.0 |
| 20260901033224 | 15 | 230 | 19.3 | 0.0 | 0.00 | 0.00 | 0.00 | 82 | 1017.0 |
| 20260901032227 | 16 | 230 | 19.3 | 0.0 | 0.00 | 0.00 | 0.00 | 77 | |
| 20260901030238 | 15 | 230 | 19.3 | 0.0 | 0.00 | 0.00 | 0.00 | 82 | 1017.0 |
| 20260901023223 | 13 | 240 | 12.9 | 0.0 | 0.00 | 0.00 | 0.00 | 87 | 1016.0 |
| 20260901022426 | 16 | 240 | 14.5 | 0.0 | 0.00 | 0.00 | 0.00 | 82 | |
| 20260901020234 | 13 | 240 | 14.5 | 0.0 | 0.00 | 0.00 | 0.00 | 87 | 1016.0 |
| 20260901013224 | 15 | 230 | 14.5 | 0.0 | 0.00 | 0.00 | 0.00 | 87 | 1016.0 |
| 20260901012429 | 17 | 220 | 8.0 | 0.0 | 0.00 | 0.00 | 0.00 | 77 | |
| 20260901010233 | 17 | 220 | 4.8 | 0.0 | 0.00 | 0.00 | 0.00 | 82 | 1017.0 |
| 20260901003224 | 17 | 240 | 4.8 | 0.0 | 0.00 | 0.00 | 0.00 | 77 | 1017.0 |
| 20260901002210 | 17 | 0 | 8.0 | 0.0 | 0.00 | 0.00 | 0.00 | 72 | |
| 20260901000226 | 18 | 250 | 8.0 | 0.0 | 0.00 | 0.00 | 0.00 | 68 | 1017.0 |
| 20260831233223 | 16 | 240 | 11.3 | 0.0 | 0.00 | 0.00 | 0.00 | 87 | 1017.0 |
| 20260831232326 | 17 | 230 | 11.3 | 0.0 | 0.00 | 0.00 | 0.00 | 82 | |
| 20260831230231 | 16 | 240 | 11.3 | 0.0 | 0.00 | 0.00 | 0.00 | 87 | 1017.0 |
| 20260831223224 | 16 | 210 | 8.0 | 0.0 | 0.00 | 0.00 | 0.00 | 87 | 1017.0 |
| 20260831222524 | 16 | 240 | 8.0 | 0.0 | 0.00 | 0.00 | 0.00 | 93 | |
| 20260831220234 | 16 | 250 | 8.0 | 0.0 | 0.00 | 0.00 | 0.00 | 87 | 1017.0 |
| 20260831213224 | 17 | 200 | 9.7 | 0.0 | 0.00 | 0.00 | 0.00 | 82 | 1017.0 |
| 20260831212210 | 18 | 190 | 8.0 | 0.0 | 0.00 | 0.00 | 0.00 | 77 | |
| 20260831210236 | 18 | 190 | 8.0 | 0.0 | 0.00 | 0.00 | 0.00 | 77 | 1016.0 |
| 20260831203223 | 17 | 230 | 3.2 | 0.0 | 0.00 | 0.00 | 0.00 | 82 | 1016.0 |
| 20260831202355 | 18 | 0 | 3.2 | 0.0 | 0.00 | 0.00 | 0.00 | 77 | |
| 20260831200233 | 18 | 210 | 4.8 | 0.0 | 0.00 | 0.00 | 0.00 | 72 | 1016.0 |
| 20260831193224 | 20 | 210 | 3.2 | 0.0 | 0.00 | 0.00 | 0.00 | 68 | 1016.0 |
| 20260831192357 | 21 | 0 | 3.2 | 0.0 | 0.00 | 0.00 | 0.00 | 68 | |
| 20260831190231 | 21 | 0 | 1.6 | 0.0 | 0.00 | 0.00 | 0.00 | 64 | 1015.0 |
| 20260831183231 | 21 | 0 | 3.2 | 0.0 | 0.00 | 0.00 | 0.00 | 68 | 1015.0 |
| 20260831182157 | 20 | 270 | 8.0 | 0.0 | 0.00 | 0.00 | 0.00 | 72 | |
| 20260831180232 | 21 | 270 | 9.7 | 0.0 | 0.00 | 0.00 | 0.00 | 68 | 1015.0 |
| 20260831173231 | 22 | 280 | 11.3 | 0.0 | 0.00 | 0.00 | 0.00 | 64 | 1015.0 |
| 20260831172355 | 23 | 280 | 11.3 | 0.0 | 0.00 | 0.00 | 0.00 | 57 | |
| 20260831170233 | 23 | 270 | 9.7 | 0.0 | 0.00 | 0.00 | 0.00 | 57 | 1015.0 |
| 20260831163231 | 25 | 240 | 11.3 | 0.0 | 0.00 | 0.00 | 0.00 | 57 | 1014.0 |
| 20260831162458 | 25 | 230 | 11.3 | 0.0 | 0.00 | 0.00 | 0.00 | 53 | |
| 20260831160236 | 23 | 220 | 11.3 | 0.0 | 0.00 | 0.00 | 0.00 | 60 | 1014.0 |